[[{"header":{"parameterUnit":"m.s-1","parameterCategory":1,"la1":30.2991,"la2":30.254,"lo1":-89.0895,"lo2":-89.0444,"dy":0.0017,"dx":0.0017,"nx":28,"ny":28,"refTime":"2023-09-28T09:00:00:Z","depth":0,"parameterNumber":2,"parameterNumberName":"U-component_of_WINDS"},"data":[0,0,0,0,0,0,0,0,0,0,0,0,0,0,0,0,0,0,0,0,0,0,0,0,0,0,0,0,0,0,0,0,0,0,0,0,0,0,0,0,0,0,0,0,0,0,0,0,0,0,0,0,0,0,0,0,0,0,-1.2371,-1.2371,0,-1.2391,-1.2391,-1.2391,-1.232,-1.2317,-1.2315,-1.2313,-1.2335,-1.2337,-1.234,0,0,0,0,0,0,0,0,0,0,0,0,0,-1.2271,-1.2273,-1.2371,-1.2371,-1.2371,-1.239,-1.2391,-1.2391,-1.232,-1.2317,-1.2315,-1.2312,-1.2334,-1.2337,-1.234,0,0,0,0,0,0,0,0,0,0,0,0,0,-1.2305,-1.2274,-1.2371,-1.2338,-1.2335,-1.239,-1.2391,-1.2391,-1.232,-1.2317,-1.2314,-1.2311,-1.2333,-1.2337,-1.234,-1.2428,0,0,-1.2352,-1.2354,0,0,0,0,0,0,0,0,-1.2303,-1.2309,-1.2343,-1.234,-1.2337,-1.2349,-1.2363,-1.2404,-1.2321,-1.2326,-1.2313,-1.2309,-1.2342,-1.2345,-1.2356,-1.2429,-1.243,-1.2353,-1.2355,-1.2357,-1.2358,0,0,0,0,0,0,0,-1.2301,-1.2308,-1.2379,-1.2343,-1.234,-1.2322,-1.2324,-1.2371,-1.2352,-1.2325,-1.232,-1.2324,-1.234,-1.2352,-1.2356,-1.2431,-1.2352,-1.2356,-1.2358,-1.236,-1.2577,-1.258,0,0,0,0,0,0,-1.2303,-1.2306,-1.2378,-1.2379,-1.2312,-1.2327,-1.2328,-1.2349,-1.2351,-1.2349,-1.2326,-1.232,-1.2347,-1.2351,-1.2356,-1.246,-1.2356,-1.236,-1.2362,-1.2573,-1.2577,-1.2581,0,0,0,0,0,0,-1.2301,-1.231,-1.2377,-1.2341,-1.2348,-1.2332,-1.2356,-1.2351,-1.2363,-1.2352,-1.2348,-1.2342,-1.2345,-1.2351,-1.2411,-1.246,-1.2362,-1.2365,-1.2569,-1.2574,-1.2579,-1.2668,0,0,0,0,0,0,-1.2299,-1.231,-1.2343,-1.2343,-1.2351,-1.2432,-1.2358,-1.2354,-1.237,-1.2362,-1.2366,-1.2363,-1.2343,-1.2405,-1.2415,-1.2463,-1.2368,-1.2565,-1.2571,-1.2578,-1.266,-1.2675,-1.2688,0,0,0,0,0,-1.2295,-1.2368,-1.2345,-1.2354,-1.2392,-1.2435,-1.2439,-1.2414,-1.2374,-1.2407,-1.24,-1.2363,-1.2452,-1.2412,-1.2422,-1.2472,-1.2562,-1.257,-1.2577,-1.2654,-1.2672,-1.2688,0,0,0,0,0,0,-1.2376,-1.2367,-1.2342,-1.2417,-1.2427,-1.2423,-1.2464,-1.2434,-1.2456,-1.2448,-1.2415,-1.2417,-1.2483,-1.2483,-1.2439,-1.2557,-1.25,-1.251,-1.2555,-1.2572,-1.2586,-1.2585,-1.2372,0,0,0,0,0,-1.2402,-1.2437,-1.2427,-1.2494,-1.25,-1.2481,-1.2499,-1.2478,-1.2488,-1.2492,-1.2489,-1.25,-1.253,-1.2551,-1.2578,-1.2659,-1.2659,-1.2698,-1.2712,-1.2723,-1.2733,-1.2776,-1.2794,-1.2607,-1.2606,-1.2606,0,0,-1.2457,-1.2456,-1.2481,-1.251,-1.2516,-1.2553,-1.2486,-1.2528,-1.2555,-1.2498,-1.2555,-1.2553,-1.2563,-1.2634,-1.2665,-1.2636,-1.2784,-1.2733,-1.2742,-1.2746,-1.2786,-1.2804,-1.282,-1.2612,-1.2611,-1.261,0,0,-1.2576,-1.2579,-1.2635,-1.2641,-1.265,-1.2637,-1.265,-1.265,-1.2646,-1.2702,-1.266,-1.2692,-1.2744,-1.2753,-1.2765,-1.2885,-1.2853,-1.2895,-1.2968,-1.301,-1.3025,-1.3038,-1.3082,-1.3098,-1.2904,-1.2904,-1.2904,0,-1.2644,-1.2698,-1.2668,-1.2713,-1.2727,-1.2675,-1.2732,-1.2739,-1.2757,-1.2768,-1.2735,-1.28,-1.2802,-1.2875,-1.2904,-1.2915,-1.2929,-1.2895,-1.3025,-1.3038,-1.3049,-1.3091,-1.3108,-1.2909,-1.2909,-1.2908,-1.2908,0,-1.2781,-1.2819,-1.2863,-1.2881,-1.2899,-1.295,-1.2927,-1.295,-1.2927,-1.2917,-1.2974,-1.2975,-1.3002,-1.3017,-1.2995,-1.3086,-1.3068,-1.303,-1.2973,-1.3073,-1.3112,-1.3127,-1.2917,-1.2915,-1.2913,-1.2912,0,0,-1.2955,-1.2953,-1.297,-1.2977,-1.2982,-1.3011,-1.3058,-1.3084,-1.3104,-1.3117,-1.3157,-1.3201,-1.3166,-1.3179,-1.3158,-1.3195,-1.3291,-1.3152,-1.3152,-1.3179,-1.3392,-1.3422,-1.3441,-1.3268,-1.3271,-1.3273,-1.3392,0,-1.3073,-1.3155,-1.3128,-1.3211,-1.3246,-1.3196,-1.3238,-1.3245,-1.3237,-1.3265,-1.3255,-1.3288,-1.3239,-1.3246,-1.328,-1.3272,-1.3334,-1.3263,-1.3306,-1.3308,-1.3307,-1.3461,-1.3493,-1.3605,-1.3407,-1.3409,-1.3411,0,-1.3223,-1.3241,-1.3328,-1.3326,-1.334,-1.3378,-1.3398,-1.3426,-1.3433,-1.3424,-1.3437,-1.3407,-1.3454,-1.3394,-1.3458,-1.341,-1.3426,-1.3424,-1.3428,-1.3433,-1.3367,-1.3472,-1.364,-1.3657,-1.3434,-1.3432,-1.3431,0,-1.3343,-1.3389,-1.3447,-1.3454,-1.3453,-1.3481,-1.3482,-1.3485,-1.3502,-1.3519,-1.353,-1.3553,-1.3566,-1.3584,-1.3561,-1.352,-1.3629,-1.3567,-1.3624,-1.3625,-1.3651,-1.365,-1.3826,-1.3658,-1.3658,-1.3657,-1.3657,0,-1.3479,-1.3535,-1.35,-1.3536,-1.3596,-1.3564,-1.3624,-1.3619,-1.3623,-1.3657,-1.3615,-1.3647,-1.3614,-1.3644,-1.3625,-1.3682,-1.3687,-1.3682,-1.3677,-1.3687,-1.3688,-1.3699,-1.3691,-1.3662,-1.3661,-1.366,-1.3659,0,-1.3624,-1.3603,-1.3663,-1.3657,-1.3656,-1.3701,-1.3695,-1.3728,-1.3715,-1.3759,-1.3767,-1.3748,-1.378,-1.3758,-1.3791,-1.3779,-1.3853,-1.3836,-1.3851,-1.3847,-1.3905,-1.3901,-1.4096,-1.412,-1.3935,-1.3936,-1.3938,0,-1.3714,-1.3755,-1.3753,-1.3772,-1.3776,-1.3808,-1.3824,-1.3793,-1.3812,-1.3822,-1.3854,-1.3882,-1.3904,-1.3958,-1.3947,-1.3972,-1.3956,-1.4022,-1.396,-1.3969,-1.3959,-1.3958,-1.3962,-1.4036,-1.4038,-1.404,-1.4042,0,-1.3876,-1.3863,-1.3888,-1.391,-1.393,-1.3946,-1.3958,-1.3976,-1.3945,-1.3968,-1.4,-1.4017,-1.405,-1.4079,-1.4099,-1.4099,-1.4066,-1.4061,-1.4076,-1.4088,-1.4095,-1.4093,-1.3887,-1.4057,-1.4056,-1.4055,-1.4054,-1.4053,-1.3997,-1.4031,-1.4035,-1.4064,-1.4069,-1.4081,-1.4112,-1.4102,-1.4129,-1.4153,-1.4132,-1.4171,-1.4176,-1.4199,-1.4204,-1.4234,-1.4207,-1.4228,-1.4234,-1.424,-1.4249,-1.4088,-1.4237,-1.4237,-1.4236,-1.4236,-1.4236,0,-1.4158,-1.4157,-1.4184,-1.4202,-1.4225,-1.4189,-1.42,-1.4222,-1.4257,-1.4264,-1.4285,-1.4323,-1.435,-1.434,-1.4365,-1.4391,-1.4376,-1.4399,-1.4398,-1.4398,-1.4271,-1.4257,-1.441,-1.441,-1.441,-1.441,-1.441,-1.441,-1.4245,-1.4301,-1.4288,-1.4347,-1.4345,-1.4383,-1.4392,-1.4403,-1.4408,-1.4452,-1.4474,-1.4467,-1.4467,-1.4491,-1.4515,-1.4511,-1.4523,-1.4552,-1.4543,-1.4424,-1.4407,-1.4391,-1.4377,-1.4554,-1.4554,-1.4668,-1.4669,-1.467]},{"header":{"parameterUnit":"m.s-1","parameterCategory":1,"la1":30.2991,"la2":30.254,"lo1":-89.0895,"lo2":-89.0444,"dy":0.0017,"dx":0.0017,"nx":28,"ny":28,"refTime":"2023-09-28T09:00:00:Z","depth":0,"parameterNumber":3,"parameterNumberName":"V-component_of_WINDS"},"data":[0,0,0,0,0,0,0,0,0,0,0,0,0,0,0,0,0,0,0,0,0,0,0,0,0,0,0,0,0,0,0,0,0,0,0,0,0,0,0,0,0,0,0,0,0,0,0,0,0,0,0,0,0,0,0,0,0,0,-2.4909,-2.4909,0,-2.4957,-2.4958,-2.4958,-2.4947,-2.4946,-2.4945,-2.4944,-2.4991,-2.4993,-2.4995,0,0,0,0,0,0,0,0,0,0,0,0,0,-2.4803,-2.4805,-2.4909,-2.4909,-2.491,-2.4957,-2.4958,-2.4958,-2.4947,-2.4946,-2.4945,-2.4943,-2.499,-2.4993,-2.4995,0,0,0,0,0,0,0,0,0,0,0,0,0,-2.485,-2.4805,-2.4908,-2.491,-2.491,-2.4957,-2.4958,-2.4959,-2.4947,-2.4946,-2.4944,-2.4943,-2.4989,-2.4992,-2.4996,-2.5043,0,0,-2.5005,-2.5007,0,0,0,0,0,0,0,0,-2.4847,-2.4853,-2.4909,-2.491,-2.491,-2.4944,-2.4938,-2.4987,-2.4947,-2.4933,-2.4944,-2.4942,-2.4976,-2.4981,-2.4993,-2.5045,-2.5047,-2.5006,-2.5007,-2.5009,-2.501,0,0,0,0,0,0,0,-2.4844,-2.4851,-2.4928,-2.491,-2.4911,-2.4907,-2.4912,-2.4947,-2.4962,-2.4934,-2.4933,-2.4939,-2.4976,-2.499,-2.4994,-2.5048,-2.5005,-2.5008,-2.501,-2.5011,-2.514,-2.5142,0,0,0,0,0,0,-2.484,-2.4849,-2.4926,-2.4929,-2.4875,-2.491,-2.4916,-2.4935,-2.4961,-2.4964,-2.4941,-2.4939,-2.4985,-2.499,-2.4995,-2.5051,-2.5009,-2.5012,-2.5014,-2.5139,-2.5141,-2.5142,0,0,0,0,0,0,-2.4838,-2.4847,-2.4924,-2.4889,-2.4898,-2.4913,-2.4935,-2.4937,-2.495,-2.4966,-2.4969,-2.4951,-2.4984,-2.4991,-2.5031,-2.5053,-2.5013,-2.5016,-2.5137,-2.5139,-2.5142,-2.5165,0,0,0,0,0,0,-2.4835,-2.4847,-2.4865,-2.4889,-2.49,-2.496,-2.4936,-2.4939,-2.4955,-2.4954,-2.4977,-2.498,-2.4983,-2.5026,-2.5034,-2.5057,-2.5019,-2.5135,-2.5138,-2.5141,-2.5162,-2.5168,-2.5172,0,0,0,0,0,-2.4831,-2.487,-2.4866,-2.4876,-2.4924,-2.4962,-2.4968,-2.4972,-2.4957,-2.4976,-2.4986,-2.4979,-2.505,-2.5031,-2.5039,-2.5063,-2.5134,-2.5137,-2.5141,-2.516,-2.5167,-2.5172,0,0,0,0,0,0,-2.4847,-2.4873,-2.487,-2.4917,-2.4937,-2.496,-2.4983,-2.4979,-2.5003,-2.5,-2.5004,-2.5009,-2.505,-2.5061,-2.5039,-2.511,-2.5089,-2.5095,-2.5101,-2.5108,-2.5113,-2.5109,-2.5021,0,0,0,0,0,-2.4856,-2.4885,-2.4906,-2.4946,-2.4956,-2.4968,-2.4984,-2.4986,-2.5007,-2.5015,-2.5028,-2.5048,-2.5074,-2.5092,-2.5117,-2.5164,-2.5168,-2.5184,-2.519,-2.5194,-2.5198,-2.5222,-2.5229,-2.5154,-2.5154,-2.5154,0,0,-2.4875,-2.4893,-2.4911,-2.495,-2.4965,-2.4994,-2.4975,-2.5007,-2.5028,-2.5019,-2.5058,-2.5069,-2.5091,-2.5134,-2.5154,-2.5144,-2.522,-2.5198,-2.5201,-2.5203,-2.5226,-2.5233,-2.524,-2.5156,-2.5156,-2.5155,0,0,-2.4924,-2.4941,-2.4976,-2.4992,-2.5017,-2.5024,-2.5033,-2.5056,-2.5062,-2.5102,-2.5096,-2.512,-2.5166,-2.5182,-2.5196,-2.5251,-2.5244,-2.5259,-2.5285,-2.5308,-2.5314,-2.532,-2.5338,-2.5344,-2.5263,-2.5263,-2.5263,0,-2.4945,-2.4989,-2.4994,-2.5026,-2.5042,-2.5037,-2.5071,-2.5087,-2.5118,-2.5129,-2.5118,-2.5175,-2.5189,-2.5236,-2.5249,-2.5261,-2.527,-2.5255,-2.5313,-2.5319,-2.5323,-2.5341,-2.5348,-2.5265,-2.5264,-2.5264,-2.5264,0,-2.5012,-2.5042,-2.5067,-2.5098,-2.5117,-2.515,-2.5159,-2.5178,-2.5178,-2.5187,-2.5226,-2.5243,-2.5272,-2.5283,-2.5283,-2.5329,-2.5322,-2.5312,-2.5292,-2.5332,-2.5348,-2.5355,-2.5267,-2.5266,-2.5266,-2.5265,0,0,-2.5072,-2.5105,-2.5114,-2.5127,-2.5154,-2.5177,-2.5209,-2.5238,-2.5253,-2.5275,-2.5301,-2.534,-2.5331,-2.5347,-2.5348,-2.5369,-2.541,-2.5357,-2.5357,-2.5365,-2.546,-2.5467,-2.5475,-2.5406,-2.5408,-2.5409,-2.5458,0,-2.5122,-2.518,-2.5185,-2.5236,-2.5264,-2.5259,-2.5287,-2.5306,-2.5314,-2.5338,-2.5347,-2.5374,-2.5361,-2.537,-2.5391,-2.5401,-2.5429,-2.5397,-2.5429,-2.543,-2.5423,-2.5483,-2.549,-2.5536,-2.5465,-2.5466,-2.5467,0,-2.5188,-2.5213,-2.5267,-2.5289,-2.53,-2.5326,-2.5351,-2.5375,-2.5395,-2.54,-2.5418,-2.5417,-2.5449,-2.5428,-2.5471,-2.5449,-2.5463,-2.547,-2.5472,-2.5474,-2.545,-2.5486,-2.5551,-2.5557,-2.5477,-2.5476,-2.5475,0,-2.5225,-2.5271,-2.5309,-2.5321,-2.5348,-2.5365,-2.5377,-2.5397,-2.5413,-2.5436,-2.5446,-2.5472,-2.5486,-2.5505,-2.5511,-2.5495,-2.5553,-2.5533,-2.5557,-2.5557,-2.5568,-2.5567,-2.5635,-2.5579,-2.5579,-2.5579,-2.5579,0,-2.528,-2.5313,-2.5326,-2.5349,-2.5385,-2.5391,-2.5427,-2.5437,-2.5455,-2.5479,-2.5477,-2.5499,-2.5506,-2.5529,-2.5534,-2.5568,-2.5575,-2.5578,-2.5579,-2.5578,-2.5577,-2.5586,-2.5582,-2.5581,-2.558,-2.558,-2.558,0,-2.5327,-2.5337,-2.5378,-2.54,-2.5406,-2.5432,-2.545,-2.5472,-2.5481,-2.5511,-2.5519,-2.5532,-2.5559,-2.5567,-2.56,-2.5603,-2.5643,-2.5641,-2.5636,-2.5635,-2.5658,-2.5655,-2.5733,-2.5743,-2.5681,-2.5682,-2.5683,0,-2.536,-2.5386,-2.5411,-2.5427,-2.544,-2.5467,-2.5484,-2.549,-2.5507,-2.5533,-2.5551,-2.5579,-2.5601,-2.5645,-2.5656,-2.5681,-2.5679,-2.5705,-2.5683,-2.5681,-2.5678,-2.5676,-2.5678,-2.5708,-2.5709,-2.5709,-2.571,0,-2.5419,-2.5423,-2.5448,-2.5474,-2.5495,-2.5516,-2.5536,-2.5549,-2.5558,-2.5578,-2.5606,-2.5624,-2.5657,-2.5684,-2.5709,-2.572,-2.5716,-2.5717,-2.5723,-2.5722,-2.5717,-2.5719,-2.5646,-2.5715,-2.5714,-2.5714,-2.5714,-2.5713,-2.5459,-2.5481,-2.5502,-2.553,-2.5546,-2.5564,-2.5586,-2.5597,-2.5621,-2.5649,-2.5652,-2.5682,-2.5701,-2.5735,-2.5747,-2.577,-2.5763,-2.5772,-2.5775,-2.5777,-2.5778,-2.5715,-2.5775,-2.5775,-2.5775,-2.5775,-2.5775,0,-2.5516,-2.553,-2.5555,-2.5584,-2.5605,-2.5601,-2.5622,-2.564,-2.5667,-2.5686,-2.5708,-2.574,-2.5766,-2.578,-2.5805,-2.5821,-2.582,-2.5827,-2.5826,-2.5828,-2.5784,-2.5775,-2.5828,-2.5828,-2.5828,-2.5828,-2.5828,-2.5828,-2.5549,-2.5585,-2.5591,-2.5635,-2.5648,-2.5678,-2.5691,-2.5708,-2.5723,-2.5759,-2.5781,-2.579,-2.5806,-2.5833,-2.5856,-2.5859,-2.5868,-2.5876,-2.5878,-2.5837,-2.5831,-2.5826,-2.5818,-2.5878,-2.5878,-2.592,-2.592,-2.5921]}]]